Retour au catalogue

STARLINK-34084

ActifCommunicationsVLEO
NORAD 63970·PAYLOAD·🇺🇸 United States

Lancé May 13, 2025 depuis Cape Canaveral Space Force Station

Loading…

Prochains Passages (prochaines 24 heures)

TLE

FraisSource: CelesTrak SupGP

Époque: Sep 14, 2026, 20:56 UTC

1 63970C 25099U   26257.87270833  .00001163  00000+0  42128-4 0  2578
2 63970  43.0028 187.3869 0001409 262.5091 120.7487 15.27580592    19

Suivez STARLINK-34084 en temps réel avec AllMySat

Download on the App Store